COSMOS 1358

Satellite information

Favourite Embed

Satellite Type and Status

PAYLOADIN ORBIT

Key statistics

Satellite COSMOS 1358 at a glance.

Uptime

15885

Days in orbit

Revolutions

≈ 12.5

Per day

Orbit

LEO

Low Earth Orbit

Inclination

74.0

Latest

Satellite identification and parameters

Extended collection of information and parameters for COSMOS 1358.

Object identification

Identified? True

Debris? False

Object name: COSMOS 1358

International designator: 1982-040B

Object number (NORAD): 13161

Object ID (CCSDS): 13161

Country: COMMONWEALTH OF INDEPENDENT STATES (CIS)

Current information (Y/N): Y

RCS size: MEDIUM

Orbital parameters

Period: 114.833 minutes

Inclination: 74.0091 deg

SMA: 7825.982 km

Apoapsis: 1480.884 km

Periapsis: 1414.809 km

RAAN: 99.4395 deg

Eccentricy: 0.0042215

Argument of periapsis: 221.4921 deg

Mean anomaly: 205.6201 deg

Mean motion: 12.53991305 rev/day

Mean motion (dot): 0.0000001 rev/day2

B* drag term: 0.0001627 1/REarth

Two-line elements (TLE)

Creation date: Oct. 31, 2025, 11:06 p.m.

Reference frame: TEME

Reference center: EARTH

Epoch: Oct. 31, 2025, 7:25 p.m. UTC

TLE line 0: 0 COSMOS 1358

TLE line 1: 1 13161U 82040B 25304.80958398 .00000010 00000-0 16270-3 0 9990

TLE line 2: 2 13161 74.0091 99.4395 0042215 221.4921 205.6201 12.53991305990708

Live tracking on map

Real-time ground track for satellite COSMOS 1358.

In-orbit conjunctions

There are no conjunctions computed for COSMOS 1358, at the moment. Check back to stay up to date, as we update our databases every day.

Go to all conjunctions

Associated space launch

Military communications satellites

COSMOS 1358 was lifted into orbit during the mission ‘Kosmos-3M | Strela-1M 233-240’, on board a Kosmos-3M space rocket.

The launch took place on May 6, 1982, 6:07 p.m. from 132/2.

For more information about the launch, click the button.

Launch to space Kosmos-3M | Strela-1M 233-240
Kosmos-3M | Strela-1M 233-240

Agency: N/A

Status: Launch Successful

Launch date: May 6, 1982, 6:07 p.m. UTC

Rocket: Kosmos-3M

Launch pad: 132/2

Location: Plesetsk Cosmodrome, Russian Federation

...

Latest news about this satellite

There are no fresh news available about this satellite. Check back as we update our databases every day.


Newsletter sign-up

Weekly statistics, charts and insights to help you stay on top of the space industry.